SCP
0 0 0 0 0 0 0 0 0 0 0 0 0 0 0 0 0 0 -0 -0 0 0 0 0 0 0 0 0 0 0 0 0 0 0 0 0 0 0 0 0 0 0 0 0
0 0 0 0 0 0 0 0 0 0 0 0 0 0 0 0 0 -0 -0 -0 -0 0 0 0 0 0 0 0 0 0 0 0 0 0 0 0 0 0 0 0 0 0 0 0
0 0 0 0 0 0 0 0 0 0 0 0 0 0 0 0 0 -0 -0 -0 -0 0 0 0 0 0 0 0 0 0 0 0 0 0 0 0 0 0 0 0 0 0 0 0
0 0 0 0 0 0 0 0 0 0 0 0 0 0 0 0 0 0 0 0 0 -0 0 0 0 0 0 0 0 0 0 0 0 0 0 0 0 0 0 0 0 0 0 0
0 0 0 0 0 0 0 0 0 0 0 0 0 0 0 0 0 0 0 0 0 0 -0 0 0 0 0 0 0 0 0 0 0 0 0 0 0 0 0 0 0 0 0 0
0 0 0 0 0 0 0 0 0 0 0 0 0 0 0 0 0 0 0 0 0 0 -0 -0 -0 0 0 0 0 0 0 0 0 0 0 0 0 0 0 0 0 0 0 0
0 0 0 0 0 0 0 0 0 0 0 0 0 0 0 -0 0 0 0 0 0 -0 -0 -0 -0 0 0 0 0 0 0 0 0 0 0 0 0 0 0 0 0 0 0 0
0 0 0 0 0 0 0 0 0 0 0 0 0 0 0 -0 -0 0 0 -0 -0 -0 -0 -0 -0 0 0 0 0 0 0 0 0 0 0 0 0 0 0 0 0 0 0 0
0 0 0 0 0 0 0 0 0 0 0 0 0 0 0 -0 -0 -0 -0 -0 -0 -0 0 -0 -0 0 0 0 0 0 -0 -0 -0 0 0 0 0 0 0 0 0 0 0 0
0 0 0 0 0 0 0 0 0 0 0 0 0 0 0 0 -0 -0 -0 -0 -0 0 0 0 -0 -0 0 0 0 -0 -0 -0 -0 -0 -0 0 0 0 0 0 0 0 0 0
0 0 0 0 0 0 0 0 0 0 0 0 0 0 0 0 0 0 -0 -0 0 0 0 0 -0 -0 -0 0 -0 -0 0 0 0 0 0 0 0 0 0 0 0 0 0 0
0 0 0 0 0 0 0 0 0 0 0 0 0 0 0 0 0 0 0 0 0 0 0 0 -0 -0 -0 0 0 0 0 0 0 0 0 0 0 0 0 0 0 0 0 0
0 0 0 0 0 0 0 0 0 0 0 0 0 0 0 0 0 0 0 0 0 0 0 0 0 0 0 0 0 0 0 0 0 0 0 0 0 0 0 0 0 0 0 0
0 0 0 0 0 0 0 0 0 0 0 0 0 0 0 0 0 0 0 0 0 0 0 0 0 0 0 0 0 0 0 0 0 0 0 0 0 0 0 0 0 0 0 0
0 0 0 0 0 0 0 0 0 0 0 0 0 0 0 0 0 0 0 0 0 0 0 0 0 0 0 0 0 0 0 0 0 0 0 0 0 0 0 0 0 0 0 0
0 0 0 0 0 0 0 0 0 0 0 0 0 0 0 0 0 0 0 0 0 0 0 0 0 0 0 0 0 0 0 0 0 0 0 0 0 0 0 0 0 0 0 0
0 0 0 0 0 0 0 0 0 0 0 0 0 0 0 0 0 0 0 0 0 0 0 0 0 0 0 0 0 0 0 0 0 0 0 0 0 0 0 0 0 0 0 0
0 0 0 0 0 0 0 0 0 0 0 0 0 0 0 0 0 0 0 0 0 0 0 0 0 0 0 0 0 0 0 0 0 0 0 0 0 0 0 0 0 0 0 0
0 0 0 0 0 0 0 0 0 0 0 0 0 0 0 0 0 0 0 0 0 0 0 0 0 0 0 0 0 0 0 0 0 0 0 0 0 0 0 0 0 0 0 0
0 0 0 0 0 0 0 0 0 0 0 0 0 0 0 0 0 0 0 0 0 0 0 0 0 0 0 0 0 0 0 0 0 0 0 0 0 0 0 0 0 0 0 0
0 0 0 0 0 0 0 0 0 0 0 0 0 0 0 0 0 0 0 0 0 0 0 0 0 0 0 0 0 0 0 0 0 0 0 0 0 0 0 0 0 0 0 0
0 0 0 0 0 0 0 0 0 0 0 0 0 0 0 0 0 0 0 0 0 0 0 0 0 0 0 0 0 0 0 0 0 0 0 0 0 0 0 0 0 0 0 0
-0 -0 0 0 0 0 0 0 0 0 0 0 0 0 0 0 0 0 0 0 0 0 0 0 0 0 0 0 0 0 0 0 0 0 0 0 0 0 0 0 0 0 0 0
-0 -0 0 0 0 0 0 0 0 0 0 0 0 0 0 0 0 0 0 0 0 0 0 0 0 0 0 0 0 0 0 0 0 0 0 0 0 0 0 0 0 0 0 0
-0 -0 0 0 0 0 0 0 0 0 0 0 0 0 0 0 0 0 0 0 0 0 0 0 0 0 0 0 0 0 0 0 0 0 0 0 0 0 0 0 0 0 0 0
0 0 0 0 0 0 0 0 0 0 0 0 0 0 0 0 0 0 0 0 0 0 0 0 0 0 0 0 0 0 0 0 0 0 0 0 0 0 0 0 0 0 0 0
0 0 0 0 0 0 0 0 0 0 0 0 0 0 0 0 0 0 0 0 0 0 0 0 0 0 0 0 0 0 0 0 0 0 0 0 0 0 0 0 0 0 0 0
Wind_Speed
2 1 3 4 6 8 8 8 8 8 8 13 12 12 11 7 5 6 7 8 9 9 9 9 8 7 7 8 8 7 8 9 9 9 9 10 10 11 11 12 13 13 14 13
1 1 4 5 8 10 9 9 10 10 14 14 10 6 6 5 5 6 7 8 8 9 9 9 8 7 7 7 8 7 9 9 9 10 11 11 12 12 13 13 13 13 13 13
1 2 1 7 10 13 8 8 9 13 13 9 9 8 6 4 3 4 5 6 7 7 7 7 6 6 6 6 7 8 9 9 9 10 11 11 12 12 12 12 12 12 12 12
1 2 5 7 2 8 8 8 11 10 10 8 8 6 2 1 1 3 4 4 5 5 5 5 5 5 6 7 8 8 9 9 9 9 10 10 11 11 10 9 10 10 11 11
1 2 7 7 3 6 6 5 7 11 13 10 4 3 3 2 1 1 2 2 3 3 4 5 5 5 6 7 8 8 8 8 8 8 9 10 10 10 9 9 9 9 9 9
2 3 5 4 1 2 3 3 3 5 7 5 0 2 3 3 2 2 2 2 3 3 4 5 5 5 7 7 7 8 8 8 7 8 9 9 9 8 8 8 9 9 9 8
4 4 8 6 2 3 2 3 2 3 4 3 4 5 2 4 3 3 2 2 3 4 4 4 4 5 7 7 7 6 7 8 8 8 9 8 8 7 8 8 9 8 8 7
5 6 9 3 4 5 4 3 3 3 3 3 4 3 4 4 4 3 3 2 3 4 4 4 4 5 7 7 6 6 7 8 8 8 7 7 8 7 7 7 8 6 6 6
7 8 4 2 5 4 3 4 4 3 3 2 4 4 5 4 4 4 3 3 3 4 5 4 4 5 6 5 5 6 8 8 7 8 7 6 6 6 5 5 5 4 4 4
5 7 6 7 6 5 4 5 4 3 3 4 5 5 6 5 5 4 4 3 3 4 5 4 4 5 5 5 5 7 8 7 6 7 7 6 5 5 5 4 4 3 3 3
5 6 5 4 2 3 2 3 3 2 3 5 6 6 6 6 6 5 4 4 4 4 5 4 4 5 4 5 6 7 7 6 6 6 5 5 5 4 4 2 3 3 2 1
6 4 3 5 4 3 3 4 4 3 2 3 6 7 7 6 6 6 5 5 5 5 5 5 5 5 4 4 5 6 6 5 4 4 4 4 4 4 8 6 8 7 4 2
3 2 4 6 4 2 3 4 3 4 4 4 4 6 7 6 6 6 6 6 6 6 5 5 5 4 4 4 5 6 6 4 3 3 3 3 3 3 3 5 8 9 8 7
2 4 4 3 4 5 4 2 1 2 2 4 5 6 7 6 7 7 7 6 6 6 6 5 5 4 3 5 6 6 5 5 5 3 3 3 3 2 2 2 2 3 5 8
3 4 6 7 7 4 2 1 1 2 2 3 4 6 7 8 8 7 7 7 7 7 6 6 5 4 3 5 6 6 5 4 3 3 3 3 3 2 2 2 2 2 2 4
8 7 6 5 5 4 3 3 4 4 4 5 5 6 7 7 7 7 7 8 8 8 7 6 6 4 4 5 6 5 4 7 5 3 3 3 2 2 2 1 1 2 2 3
5 6 5 6 7 7 6 6 6 5 5 6 7 7 7 8 7 7 7 6 5 6 6 6 6 5 5 5 5 4 3 4 6 4 2 2 1 1 0 1 1 2 2 4
6 7 8 9 10 10 8 7 6 6 7 7 7 8 9 10 9 9 7 7 6 5 4 5 6 6 5 5 5 4 4 3 3 2 2 1 1 0 0 1 2 3 3 4
6 6 7 8 8 8 7 6 6 6 6 8 9 9 9 8 8 8 9 9 9 7 6 6 10 7 6 6 6 4 4 4 3 2 1 1 1 0 1 2 2 3 4 4
6 7 7 8 7 5 5 4 3 4 6 8 8 8 8 8 8 9 9 7 6 4 7 8 8 6 5 6 7 4 4 4 3 2 1 1 1 2 2 3 3 3 4 4
7 8 8 8 8 6 5 2 1 4 5 7 8 9 8 8 9 9 8 6 4 6 9 12 7 5 5 6 7 4 4 3 3 2 2 2 2 2 3 3 3 4 4 4
6 7 8 8 7 6 5 3 1 3 4 5 6 6 8 8 8 7 6 4 7 11 8 6 5 8 9 8 4 4 4 3 3 3 2 2 2 3 3 4 4 4 5 5
5 6 7 7 7 5 5 3 2 1 3 4 6 7 8 7 7 7 6 4 6 12 8 6 9 13 13 6 4 4 4 4 3 3 3 3 3 3 4 4 4 5 5 5
5 6 6 6 5 4 5 5 3 1 1 3 4 5 6 5 4 3 3 10 13 13 7 10 15 14 12 5 4 4 4 3 3 3 3 3 3 3 4 4 5 5 5 7
4 5 5 6 5 4 4 4 3 2 0 1 2 4 4 4 4 5 5 7 13 13 7 11 16 14 8 5 5 4 4 4 4 4 4 3 4 4 4 4 5 5 6 6
4 4 4 4 4 3 3 3 2 2 1 1 1 2 3 3 4 5 5 6 9 11 7 5 7 9 6 5 4 4 4 3 3 3 3 4 4 4 4 5 6 6 6 6
4 3 3 3 3 3 3 3 3 2 2 2 2 2 3 3 4 5 5 6 6 6 5 5 5 6 5 5 4 4 3 3 3 3 3 4 4 4 5 6 6 6 6 7
Wind_Direction
219 210 167 195 191 185 192 194 204 236 246 273 285 294 299 303 321 332 336 342 345 343 341 342 346 353 3 7 10 15 33 43 47 52 61 70 76 80 85 89 94 98 99 99
323 259 211 233 221 205 214 219 236 261 276 270 276 284 287 300 323 329 335 342 345 345 346 348 352 1 13 20 23 33 47 50 53 61 65 69 75 79 83 87 91 95 98 100
285 295 306 259 223 200 200 206 204 233 246 269 288 293 294 302 318 322 330 341 346 346 348 350 358 13 25 28 36 47 54 56 59 68 73 75 79 81 83 87 90 91 93 96
263 4 249 246 214 184 200 227 215 235 256 268 272 289 276 219 294 318 333 344 347 350 357 2 11 28 39 45 51 56 58 59 62 70 75 78 81 83 83 84 86 87 88 90
194 279 282 289 244 170 183 258 225 231 256 270 287 315 276 172 127 23 1 0 359 6 16 22 27 36 50 52 55 60 60 61 64 72 78 80 81 81 83 86 84 82 82 83
189 247 256 259 314 154 135 275 260 216 253 274 283 297 279 134 115 90 58 38 32 30 39 40 36 49 62 59 59 61 62 64 65 70 77 78 78 79 80 81 81 81 75 71
212 241 265 254 230 131 182 241 280 250 259 253 215 220 154 129 119 111 87 63 58 57 53 44 47 65 69 65 60 60 67 69 67 68 74 77 76 75 81 84 83 79 76 63
190 215 253 241 146 183 229 270 276 269 257 243 214 145 137 140 132 127 111 87 79 75 65 51 60 77 78 68 65 70 73 73 69 66 70 74 78 73 73 82 84 81 80 68
200 218 240 215 215 240 229 260 266 255 249 211 186 181 166 154 146 141 137 119 101 97 84 65 62 81 88 79 81 82 78 74 71 68 64 66 76 78 71 70 79 76 74 71
244 259 260 263 263 264 243 240 255 250 233 192 192 180 167 157 154 149 143 134 122 112 100 84 72 75 84 89 88 89 85 77 73 74 68 59 59 67 76 77 81 82 83 78
245 271 297 289 260 273 271 253 256 247 211 198 184 177 170 163 160 155 146 137 128 124 117 110 98 88 87 95 101 95 87 81 74 71 75 69 64 73 88 97 124 117 117 118
223 235 234 271 291 295 274 266 251 229 212 192 182 175 163 160 157 153 149 141 133 129 126 121 113 102 96 100 108 108 98 87 82 81 76 74 72 59 71 80 79 81 90 102
260 292 250 265 286 292 280 272 247 216 207 193 177 165 158 154 154 150 149 149 148 145 139 132 122 113 111 112 109 107 111 107 94 91 92 91 88 89 68 49 57 50 38 31
16 353 307 307 306 306 289 284 209 183 186 175 161 153 150 146 149 155 158 155 145 140 138 136 129 125 127 121 113 108 107 112 110 106 104 100 95 90 87 70 26 3 7 10
13 341 285 289 296 297 292 214 195 196 173 162 159 157 158 159 162 160 151 144 138 138 143 143 138 138 136 127 120 118 114 112 110 107 101 96 92 86 75 65 47 6 344 347
314 303 292 294 300 301 288 255 240 229 198 184 177 172 167 158 151 147 149 152 155 162 163 157 153 152 143 130 122 117 121 131 125 113 101 92 86 81 65 39 10 348 329 315
307 313 321 315 309 299 276 251 240 228 203 192 184 165 151 145 146 152 156 157 153 152 156 156 152 144 137 134 130 127 122 127 122 107 101 104 101 92 49 333 311 305 298 301
275 281 284 285 286 286 280 259 237 218 202 188 165 159 164 168 171 166 155 140 130 132 148 147 142 137 134 134 131 128 124 119 119 124 125 145 152 158 276 291 293 297 296 304
306 302 300 295 287 279 274 263 240 212 185 168 168 175 177 174 165 157 153 155 161 168 172 160 157 145 142 150 138 127 129 131 129 130 136 188 147 252 280 282 283 285 288 292
332 329 326 321 319 306 290 279 227 182 169 166 166 167 170 168 161 160 166 177 183 170 156 159 151 146 147 154 144 131 139 146 153 161 174 199 231 260 271 275 280 282 283 286
344 342 343 341 338 338 336 328 178 167 163 167 173 176 172 165 164 164 171 183 177 153 156 161 151 149 150 156 149 139 149 157 167 182 201 222 245 259 267 274 283 287 287 288
347 346 347 346 348 349 351 3 64 148 157 167 167 160 160 166 171 176 187 178 161 167 160 155 151 164 168 157 140 150 160 169 178 189 208 225 243 259 268 274 275 280 281 281
347 348 348 347 345 342 354 10 27 134 171 177 175 175 177 177 177 179 188 171 159 171 161 161 171 174 171 153 149 161 171 182 193 204 216 226 237 248 259 268 270 273 277 280
350 350 345 341 345 0 2 353 348 341 186 181 181 178 174 171 181 186 149 168 176 173 166 175 178 179 168 145 157 168 181 193 202 212 223 233 241 248 255 263 270 273 274 278
343 340 345 352 358 353 341 338 348 2 51 168 180 180 179 178 178 173 161 170 178 170 163 181 182 179 157 151 167 178 187 199 206 212 222 235 245 253 258 262 266 272 276 276
342 336 331 327 327 327 331 334 329 316 290 243 213 190 174 157 152 156 163 170 175 171 166 169 171 166 150 162 172 183 193 216 239 236 231 243 252 258 263 267 271 272 274 275
333 331 328 332 337 340 334 324 311 299 273 242 230 199 176 162 159 164 166 167 165 161 158 155 147 145 152 162 173 184 195 208 221 233 241 246 252 257 263 268 271 273 275 276